Hourly Data Report for October 06, 2015

All times are specified in Local Standard Time (LST). Add 1 hour to adjust for Daylight Saving Time where and when it is observed.

BATHURST A
NEW BRUNSWICK

47°37'47.000" N
65°44'20.000" W
58.80 m
8100505
71574
ZBF

Download Data

Hourly Data (October 2015)
Hourly Data Report for October 6, 2015
Temp Definition
°C
Dew Point Temp Definition
°C
Rel Hum Definition
%
Wind Dir Definition
10's deg

Wind Spd Definition
km/h
Visibility Definition
km
Stn Press Definition
kPa
Hmdx Definition


Wind Chill Definition


Weather Definition


TIME
00:00 Legend Double Dagger 4.7 4.4 98 25 5 19.3 101.13     LegendNANA
01:00 Legend Double Dagger 4.7 4.1 96 24 6 19.3 101.07     LegendNANA
02:00 Legend Double Dagger 3.7 3.3 97 23 4 16.1 101.04     Mainly Clear
03:00 Legend Double Dagger 3.3 2.7 96 24 4 19.3 100.99     LegendNANA
04:00 Legend Double Dagger 2.3 2.0 98 24 3 19.3 100.94     LegendNANA
05:00 Legend Double Dagger 1.7 1.4 98 36 3 19.3 100.93     Clear
06:00 Legend Double Dagger 1.0 0.7 98 25 4 24.1 100.90     LegendNANA
07:00 Legend Double Dagger 1.8 1.4 97 36 1 24.1 100.88     LegendNANA
08:00 Legend Double Dagger 5.9 4.9 93 14 3 24.1 100.87     Mainly Clear
09:00 Legend Double Dagger 9.6 7.2 85 11 4 24.1 100.84     LegendNANA
10:00 Legend Double Dagger 13.6 6.5 62 8 3 24.1 100.80     LegendNANA
11:00 Legend Double Dagger 15.6 5.6 51 4 4 24.1 100.74     Clear
12:00 Legend Double Dagger 15.6 6.9 56 7 13 24.1 100.66     LegendNANA
13:00 Legend Double Dagger 15.7 7.0 56 7 12 24.1 100.61     LegendNANA
14:00 Legend Double Dagger 16.3 6.0 50 4 13 24.1 100.54     Mainly Clear
15:00 Legend Double Dagger 15.4 6.0 53 6 9 24.1 100.49     LegendNANA
16:00 Legend Double Dagger 14.7 6.6 58 2 7 24.1 100.47     LegendNANA
17:00 Legend Double Dagger 13.9 7.5 65 2 4 24.1 100.44     Mostly Cloudy
18:00 Legend Double Dagger 12.9 9.2 78 26 4 24.1 100.42     LegendNANA
19:00 Legend Double Dagger 11.5 8.4 81 36 2 24.1 100.39     LegendNANA
20:00 Legend Double Dagger 10.7 8.6 87 23 7 24.1 100.40     Cloudy
21:00 Legend Double Dagger 9.2 8.1 93 23 4 24.1 100.36     LegendNANA
22:00 Legend Double Dagger 9.5 7.6 88 23 9 24.1 100.36     LegendNANA
23:00 Legend Double Dagger 9.3 6.9 85 36 2 24.1 100.32     Cloudy

Notes on Data Quality.

Legend

  • E = Estimated
  • M = Missing
  • NA = Not Available
  • ‡ = Partner data that is not subject to review by the National Climate Archives
Date modified: